Regional Weather Roundup
Issued by NWS Newport/Morehead, NC

Current Version | Previous Version | Text Only | Print | Product List | Glossary Off
Versions: 1 2 3 4 5 6 7 8 9 10 11 12 13 14 15 16 17 18 19 20 21 22 23 24 25 26 27 28 29 30 31 32 33 34 35 36 37 38 39 40 41 42 43 44 45 46 47 48 49 50
000 ASUS42 KMHX 230822 RWRMHX WEATHER ROUNDUP FOR EASTERN NORTH CAROLINA NATIONAL WEATHER SERVICE NEWPORT/MOREHEAD CITY NC 400 AM EDT THU OCT 23 2014 NOTE: "FAIR" INDICATES FEW OR NO CLOUDS BELOW 12,000 FEET WITH NO SIGNIFICANT WEATHER AND/OR OBSTRUCTIONS TO VISIBILITY NCZ015>017-031-032-045>047-102-103-230900- NORTH COAST CITY SKY/WX TMP DP RH WIND PRES REMARKS EDENTON CLOUDY 53 46 75 NW9G18 29.91F ELIZABETH CITY CLOUDY 54 45 71 W12 29.89F KITTY HAWK CLOUDY 55 46 73 NW13G22 29.86S MANTEO CLOUDY 55 46 71 NW15G26 29.87S $$ NCZ045>047-081-094-103-104-230900- CENTRAL COAST CITY SKY/WX TMP DP RH WIND PRES REMARKS FRISCO PTCLDY 55 48 77 NW15G24 29.88F SWANQUARTER N/A 52 N/A N/A NW9G16 29.88S $$ NCZ095-097-098-100-101-230900- SOUTHERN COAST CITY SKY/WX TMP DP RH WIND PRES REMARKS BEAUFORT CLEAR 54 47 77 NW16 29.95S CEDAR ISLAND N/A 57 N/A N/A NW25G32 29.94S JACKSONVILLE CLEAR 49 44 83 W8 29.98F PINEY ISLAND SUNNY 57 46 66 NW16G24 29.93F WILMINGTON CLEAR 49 43 80 NW9 30.00F $$ NCZ011>013-027>030-043-044-078>080-089-090>093-098-230900- COASTAL PLAIN CITY SKY/WX TMP DP RH WIND PRES REMARKS AHOSKIE CLEAR 48 42 79 CALM 29.94S CLINTON CLEAR 48 44 87 NW5 30.01F ELIZABETHTOWN CLEAR 49 42 78 NW5 30.01F GOLDSBORO CLEAR 49 48 97 W8 29.98F GREENVILLE CLEAR 50 45 81 W3 29.98S HAVELOCK CLEAR 52 46 80 NW9 29.97F KENANSVILLE CLEAR 47 42 84 W5 30.01R KINSTON CLEAR 48 44 85 W6 29.99S NEW BERN CLEAR 53 46 77 W9 29.97F RICHLANDS CLEAR 48 41 76 W5 29.99S ROCKY MOUNT CLEAR 48 43 82 W6 29.98F WASHINGTON CLEAR 49 44 83 CALM 29.95F WHITEVILLE CLEAR 47 42 81 CALM 30.01F $$ AMZ130-135-150-152-154-156-158-170-250-252-270-ANZ085-086-088-633-658-670-230900- MARINE OBSERVATIONS STATION/POSITION TIME TEMP WIND PRES WAVE SWELL AIR SEA DIR/SP/G HT/PER HT/PER (UTC) (F) (DEG/KT/KT) (MB) (FT/S) (FT/S) CHESAPEAKE LIGHT 0800 56 320/ 31/ 33 1010.2 64 E VA BEACH 0800 60 70 320/ 25/ 31 1007.3 12/10 DUCK 0800 54 67 290/ 18/ 24 1010.3 2 E DUCK 0800 N/A 6/10 2/11 10 NE DUCK 0800 68 N/A 8/ 9 2/11 OREGON INLET 0800 55 62 300/ 17/ 24 1011.0 13E OREGON INLT 0800 72 N/A 9/ 9 2/11 HATTERAS CG 0800 56 65 310/ 23/ 26 1012.2 DIAMOND BUOY 0800 59 310/ 23/ 27 1011.3 6/ 5 2/ 9 17 S OCRACOKE NOT AVBL CAPE LOOKOUT 0800 57 310/ 14/ 19 1013.9 BEAUFORT LAB 0800 55 67 310/ 7/ 12 1013.5 30 SE NEW RIVER 0800 62 75 340/ 19/ 25 1013.6 3/ 4 5 SE WRIGHTSVLE 0800 54 72 330/ 17/ 23 N/A 225 S CAPE HAT 0659 70 78 320/ 16/ 19 1012.7 8/ 8 41 SE CHARLESTON 0800 64 78 350/ 16/ 19 1015.7 4/ 5 2/11 $$

USA.gov is the U.S. government's official web portal to all federal, state and local government web resources and services.